Starlink 34144

operational
NORAD ID: 63958 Int'l Des: 2025-099 Owner: SPXS Country: US Constellation: starlink
LEOCIRCULAR

About Starlink 34144

Description loading...

Live Position

Loading 3D Globe...

Upcoming Passes

Altitude History

Altitude vs Time

uPlot chart will show altitude changes over time

Two-Line Element Set

1 63958U 25099G 26048.08709489 .00021741 00000-0 79715-3 0 9998
2 63958 43.0012 292.7325 0001878 281.9103 78.1538 15.27584060 44188
Epoch: Feb 17, 2026 • Age: 22 hours

Current Status

Altitude 493.7 km
Velocity 7.62 km/s
Sub-Earth Point -40.09°S, 79.5°E
Launch Date May 13, 2025
Age 0.7 years
Type internet

Technical Details

Classification Payload
Mass 575.00 kg
Dry Mass 530.00 kg
Total Mass 575.00 kg
Length 0.30 m
Diameter 4.10 m
Span 29.00 m
Shape Box + pan
Manufacturer SPXS
Bus Type Starlink V2MO
Phase Status In Orbit
Owner/State SPXS/US

Large Constellations

Loading constellations...